Theta_e
299 299 299 299 300 302 302 304 306 307 308 309 307 307 307 308 310 311 314 320 320 316 313 317 320 321 325 326 326 328 329 327 326 327 327 328 329 326 327 328 327 327 328 328 327
302 301 302 301 301 300 299 300 300 303 305 306 307 309 308 307 307 309 318 316 318 314 314 313 315 320 325 326 328 329 329 327 326 326 327 327 328 328 328 328 329 328 327 328 328
302 302 302 302 302 302 302 302 300 299 300 302 304 306 308 309 307 308 313 315 317 315 313 312 312 319 325 327 327 328 330 328 327 326 326 327 327 328 328 329 328 329 329 329 328
301 301 301 302 302 302 302 302 302 302 301 300 300 301 305 306 309 311 312 314 317 318 313 312 319 324 324 327 327 328 328 328 328 327 326 327 327 328 328 328 328 328 328 329 328
300 300 300 300 300 301 301 301 302 302 302 302 302 299 301 307 308 309 312 315 314 317 315 314 320 320 322 324 325 328 327 328 328 328 328 327 328 328 327 327 327 328 328 327 328
299 299 300 300 300 300 300 300 301 301 301 301 301 301 303 306 308 309 310 314 313 311 313 312 314 320 320 323 324 325 325 325 326 327 327 327 326 325 324 324 324 324 325 325 325
298 298 299 300 300 300 300 300 300 300 300 301 302 304 306 305 307 309 309 310 309 308 308 311 313 315 317 319 319 320 322 323 322 323 323 321 321 321 320 321 322 323 323 324 324
297 297 298 299 299 300 300 300 300 300 300 301 304 306 305 303 304 307 308 311 309 308 307 309 310 315 316 316 317 318 319 320 320 319 319 319 320 321 320 321 322 322 324 324 324
298 301 300 300 300 299 300 300 300 301 303 305 305 305 305 303 303 305 305 307 309 309 307 309 311 316 316 318 319 319 321 320 320 318 319 320 321 321 320 320 321 322 322 323 323
301 302 301 301 301 300 300 300 302 306 307 304 305 304 303 306 308 308 309 309 308 309 309 309 312 315 316 318 321 319 318 319 319 319 318 319 320 320 320 321 321 322 323 324 324
300 301 302 302 302 301 301 301 306 306 304 306 305 305 304 304 304 306 309 308 309 308 311 309 312 316 315 317 318 321 320 321 320 318 318 321 322 322 321 321 322 322 323 323 323
301 302 302 302 301 301 302 304 303 304 304 304 303 305 304 305 306 306 306 309 309 310 311 310 312 314 316 316 315 316 317 318 318 318 319 321 321 322 322 321 322 322 322 323 325
302 302 302 303 302 303 301 302 303 303 305 305 306 306 306 306 307 306 308 309 310 310 311 313 314 313 314 316 315 316 317 317 318 321 321 321 322 322 322 322 321 322 324 324 325
302 302 302 303 302 302 302 302 302 303 307 306 307 307 308 308 309 308 306 309 310 311 310 312 313 313 313 315 316 318 317 317 318 319 322 321 324 323 321 321 324 325 326 325 323
300 300 302 303 304 303 301 302 302 305 303 305 310 308 307 309 309 310 308 308 311 311 311 311 311 312 313 314 316 317 318 318 318 320 321 321 321 322 323 321 322 324 326 325 323
300 300 301 301 302 301 302 302 305 307 303 306 307 307 307 308 308 308 309 307 310 313 311 313 311 312 313 314 316 317 319 320 320 321 322 321 320 323 321 321 323 325 326 323 324
301 300 301 302 302 302 302 303 305 305 303 307 307 306 306 308 309 308 310 309 311 314 315 313 312 312 312 314 316 318 319 321 321 322 323 321 321 321 322 323 325 325 326 324 324
301 300 303 302 303 302 302 304 304 302 304 306 306 306 306 306 306 305 309 314 309 313 316 316 315 313 312 313 315 318 320 321 324 324 321 321 320 320 323 322 322 324 325 324 325
300 302 303 303 303 302 303 303 302 306 305 304 305 304 306 305 306 305 308 314 312 309 312 316 316 315 313 314 315 317 319 318 319 322 320 322 323 324 325 326 326 324 324 326 327
300 302 303 303 302 302 303 302 303 304 304 304 305 306 305 305 306 306 307 310 311 311 312 314 316 316 314 314 316 317 318 317 318 319 320 323 325 323 327 327 328 328 327 326 326
300 301 302 304 303 303 304 303 304 303 304 304 304 305 304 304 307 307 305 306 309 310 310 313 316 316 315 314 315 315 317 317 318 319 318 318 321 328 328 329 329 329 328 326 326
300 303 301 304 303 302 304 304 303 304 304 305 305 305 305 306 306 307 307 307 308 308 312 311 317 318 317 316 316 315 317 318 317 319 318 320 320 323 327 326 328 329 327 326 327
300 300 301 302 303 304 302 303 304 304 305 305 305 304 305 305 305 306 308 308 308 308 308 311 317 317 318 316 316 317 316 318 319 320 319 319 321 323 323 325 326 328 326 326 326
300 302 300 301 300 302 301 303 304 304 305 305 305 305 305 306 305 305 306 306 308 307 309 309 314 317 318 317 317 316 316 316 318 319 318 318 319 322 324 324 326 327 327 326 327
300 301 300 301 301 300 300 301 304 304 304 305 306 306 307 306 306 306 307 308 309 308 310 310 312 313 314 313 315 318 316 316 317 318 318 319 319 320 323 322 326 327 326 326 327
300 301 301 301 300 300 300 303 304 304 303 304 306 305 306 306 306 307 307 309 311 310 310 310 313 312 314 315 315 317 318 317 316 316 317 318 320 321 321 323 326 327 326 327 327
300 300 300 301 300 301 301 302 302 302 303 304 304 306 306 306 306 306 305 306 308 309 311 311 312 313 317 314 315 318 318 318 317 316 317 318 318 319 321 323 325 328 327 327 328
Wind_Speed
18 18 19 20 21 23 25 23 24 24 25 26 28 26 28 28 27 26 28 23 16 11 17 10 16 19 16 13 11 7 5 11 8 7 7 4 5 2 4 9 8 11 12 14 18
13 15 17 18 19 18 22 24 24 25 26 27 27 28 27 28 30 31 31 27 23 19 18 17 17 18 13 11 9 11 9 13 10 11 8 3 6 8 7 14 25 14 13 15 22
16 15 14 15 16 17 18 18 21 24 25 26 26 27 27 23 25 20 29 28 28 29 28 23 19 22 16 12 14 10 18 23 21 14 9 14 15 12 16 18 27 18 25 28 28
17 17 17 16 17 17 18 18 18 19 21 23 25 25 25 17 8 5 13 21 27 35 34 23 20 15 13 14 22 14 19 31 31 19 14 16 14 16 20 34 35 27 25 30 30
19 19 19 19 19 19 19 20 19 19 19 20 20 20 20 13 19 12 11 10 1 13 27 28 30 26 18 17 22 15 21 25 25 27 24 26 26 23 31 35 37 30 29 30 34
19 20 20 20 21 21 20 20 20 21 21 20 20 16 15 12 24 31 33 18 16 8 10 22 15 22 17 15 22 15 26 29 27 24 30 24 29 16 27 32 38 33 33 33 31
20 20 22 23 23 23 23 22 23 22 20 22 21 17 19 35 19 17 20 34 33 25 20 17 27 12 8 5 16 14 14 15 16 22 18 21 18 18 31 32 27 29 34 33 36
21 21 23 22 23 25 25 25 25 25 22 20 18 14 14 18 23 28 30 28 25 29 25 21 17 19 6 1 3 9 6 14 12 17 13 11 21 18 29 21 25 28 28 30 30
21 22 24 25 25 24 24 26 26 20 16 14 9 8 15 12 21 18 23 32 29 30 21 13 15 15 8 10 7 8 12 16 12 12 12 14 17 12 17 17 23 30 31 32 35
22 22 23 22 23 25 25 25 15 10 8 3 3 4 9 7 6 16 15 10 21 13 17 17 12 11 14 15 20 18 11 10 13 10 9 15 18 17 27 19 25 29 28 28 28
22 22 23 23 24 25 25 16 4 3 4 8 10 14 29 26 27 17 7 9 14 21 17 24 13 25 29 29 13 18 20 22 17 7 8 16 17 20 25 21 23 27 28 30 33
22 22 22 23 23 23 11 5 4 5 13 22 29 31 37 27 14 22 15 11 13 18 22 10 28 31 24 21 24 23 23 23 14 12 7 16 20 18 18 22 23 26 28 28 26
23 22 23 23 24 8 15 4 2 10 6 18 19 15 16 10 19 31 16 10 11 20 29 27 37 22 23 21 25 29 29 24 19 4 8 10 22 19 14 15 22 24 24 23 21
24 23 23 24 13 16 8 4 5 11 4 6 4 4 3 6 7 23 26 16 13 22 22 22 27 24 23 28 23 26 24 23 17 8 12 3 17 19 18 20 16 21 17 12 9
26 24 21 18 19 9 5 5 9 2 5 2 3 0 7 5 18 4 17 28 21 12 15 18 18 28 26 30 26 22 15 17 15 12 12 17 10 18 5 18 23 18 17 10 5
29 25 23 19 15 9 4 5 2 3 7 3 3 8 6 2 16 11 2 26 19 15 20 17 11 22 31 18 23 12 12 12 7 9 13 17 13 25 13 18 14 13 15 6 7
30 28 20 12 9 6 4 1 3 4 6 3 6 11 12 10 11 17 8 14 13 17 18 16 17 3 13 22 20 23 14 8 9 9 11 11 12 19 9 13 16 17 13 5 4
31 22 7 11 12 4 4 3 5 1 6 10 12 13 8 9 7 22 15 8 21 16 9 14 10 21 17 16 19 27 23 10 14 13 9 13 11 9 17 25 30 22 16 7 8
31 6 15 12 5 6 3 3 2 2 5 10 13 9 3 7 6 6 12 10 9 22 7 11 16 11 19 13 24 23 22 17 10 1 4 5 7 13 15 14 12 18 14 10 12
24 4 16 10 6 4 2 4 3 5 9 6 6 4 5 10 7 3 5 5 11 14 13 6 6 12 19 21 23 20 22 12 11 13 9 4 7 9 9 14 10 10 12 12 15
14 3 13 6 3 1 1 3 5 11 9 4 5 6 5 9 8 5 4 5 4 13 14 10 6 10 18 20 23 11 22 8 10 7 7 4 6 8 16 15 16 13 13 17 21
11 2 12 9 2 2 3 6 7 8 5 6 7 10 7 5 7 5 7 6 3 6 8 7 6 7 24 14 19 22 17 22 11 9 10 5 6 1 9 3 3 6 12 17 20
8 4 7 10 4 3 7 7 6 6 8 6 5 4 5 4 5 7 5 3 6 4 4 7 5 11 7 8 14 28 22 22 9 4 16 11 3 1 3 5 2 7 14 18 21
7 4 5 5 4 7 8 6 6 11 5 8 7 7 6 6 6 7 8 5 6 5 6 7 4 10 10 6 1 21 24 21 20 13 9 16 9 13 6 7 0 5 16 18 21
8 2 3 4 5 9 10 6 10 10 6 8 1 3 6 4 10 8 5 9 7 5 3 2 4 7 15 14 10 5 21 26 25 20 16 10 19 21 15 14 5 8 15 20 21
6 4 3 8 7 9 4 3 9 7 6 8 6 14 11 6 11 17 14 7 3 2 1 3 3 10 10 11 9 10 8 21 25 22 18 10 18 19 21 10 4 8 18 22 24
8 7 6 6 6 5 2 4 9 16 10 9 14 15 13 11 9 11 16 17 14 3 2 2 0 5 10 2 6 10 15 12 13 18 23 20 13 5 9 12 11 13 20 25 27
Wind_Direction
324 324 319 313 306 302 302 294 286 281 279 282 283 277 276 276 273 269 264 261 263 245 240 242 202 208 198 192 193 189 235 244 239 215 246 208 222 90 331 296 286 261 259 292 310
344 338 337 334 332 321 307 303 298 289 284 280 278 280 280 282 284 274 268 267 257 255 243 230 224 196 184 200 178 200 223 238 236 238 259 279 307 317 290 298 288 273 281 304 306
348 343 337 335 333 333 330 322 308 300 294 290 286 280 278 285 295 278 270 264 247 239 238 236 238 207 200 192 186 212 230 236 261 253 266 281 280 293 292 290 282 294 302 307 304
342 339 336 331 331 328 323 322 317 311 304 300 295 290 281 279 249 231 243 229 227 230 224 219 212 199 211 206 202 214 231 244 252 268 277 275 294 274 275 269 280 291 287 295 300
336 334 332 332 327 323 321 319 318 314 313 313 310 300 286 256 231 247 239 191 48 211 215 200 197 202 214 210 224 215 228 241 250 267 266 275 270 268 284 281 282 283 285 285 289
330 329 329 328 327 323 319 315 313 311 318 315 310 302 277 249 260 246 238 231 256 251 194 201 206 222 241 224 214 219 230 243 252 262 270 267 268 278 268 277 281 285 280 281 282
329 329 327 326 326 323 321 319 311 313 303 299 296 291 262 249 252 260 242 239 241 248 243 233 224 224 234 214 234 242 238 241 240 247 255 271 271 256 269 272 278 277 282 281 282
333 330 326 325 323 320 321 316 318 312 302 294 287 273 258 295 269 256 247 239 240 236 241 240 230 242 234 233 141 208 206 229 229 232 246 218 269 277 272 277 282 284 282 282 283
339 335 332 328 324 321 318 316 321 314 309 300 268 243 274 276 262 272 251 241 239 242 230 218 213 225 221 229 225 214 231 218 236 229 245 214 274 257 273 287 287 284 284 282 283
339 336 334 330 326 323 323 327 330 326 329 353 152 234 261 297 249 314 281 258 227 212 200 207 191 209 217 202 219 219 228 236 233 228 224 239 254 274 283 286 281 284 287 284 280
336 333 333 332 331 328 330 341 338 312 296 251 256 253 281 288 284 277 319 267 196 194 197 191 197 219 212 215 235 253 234 238 234 228 245 250 268 278 286 289 283 284 282 278 282
334 333 332 330 331 328 358 43 42 326 297 281 277 256 268 272 291 265 254 202 190 200 193 176 221 220 223 220 223 229 234 238 248 259 247 279 280 280 284 284 285 285 278 272 281
331 326 326 325 328 329 334 284 225 314 260 283 253 254 253 251 236 265 197 215 209 208 192 198 224 212 207 213 215 224 229 237 244 256 245 289 281 276 280 285 293 285 271 279 279
339 328 322 321 320 317 337 212 311 315 286 269 221 247 263 211 241 262 217 209 215 212 204 224 225 200 206 217 209 230 227 240 240 234 255 240 284 278 290 287 285 284 278 278 295
341 335 329 320 303 308 312 271 279 258 296 64 131 348 329 211 321 263 235 209 229 192 189 210 200 213 207 209 204 233 222 216 228 247 274 257 276 274 226 282 280 281 281 299 290
342 337 324 317 306 316 275 307 149 197 247 313 87 338 335 342 347 308 253 221 227 244 222 222 208 203 221 203 204 207 197 164 185 235 245 251 241 279 257 252 265 264 267 284 331
339 334 322 331 314 312 270 11 171 231 326 19 338 328 329 5 352 352 324 198 213 202 218 215 222 210 202 201 192 195 197 185 211 209 241 230 217 249 251 245 252 265 274 275 246
341 341 12 345 328 271 250 176 227 299 280 349 339 325 312 20 28 328 353 337 216 242 218 204 193 210 193 199 190 191 190 215 217 225 234 203 230 260 231 238 238 246 268 224 198
345 15 7 351 2 152 206 212 278 328 359 339 324 303 335 2 341 357 357 340 24 227 276 220 227 179 183 181 183 201 212 214 238 120 220 194 240 267 248 245 232 228 227 211 183
351 72 25 17 92 160 257 279 285 323 331 316 297 342 336 345 316 18 345 342 334 351 339 284 244 207 189 192 191 185 178 189 213 212 218 211 237 237 223 230 217 215 204 182 169
1 52 6 339 215 242 206 278 286 287 306 277 279 293 304 316 332 315 216 315 3 347 330 267 277 174 175 200 185 181 189 195 199 223 209 230 231 217 228 213 221 217 195 174 170
7 16 2 40 33 343 300 305 303 291 314 281 261 267 259 299 300 292 286 166 98 41 331 303 294 244 206 198 197 198 195 194 197 183 218 232 231 49 241 257 225 170 163 165 168
349 315 3 14 7 350 326 303 273 305 337 313 303 301 283 294 307 300 316 87 129 82 22 342 237 223 172 195 206 202 204 204 212 181 204 198 189 63 250 253 167 133 151 158 161
357 349 351 16 23 336 335 310 320 325 313 337 290 303 308 301 244 265 283 310 197 270 156 330 275 259 208 203 353 207 208 205 207 216 191 215 209 252 256 320 53 150 158 162 169
8 11 356 318 335 331 321 299 315 349 342 316 329 355 339 296 308 249 252 316 294 156 126 57 280 291 273 276 286 287 219 211 214 216 221 197 218 248 253 291 327 175 168 163 172
2 342 318 291 296 326 326 292 331 331 312 308 293 321 324 289 282 292 304 309 272 8 138 138 318 324 262 233 252 272 257 225 218 215 218 211 228 230 252 275 248 183 183 176 183
342 325 298 283 316 322 290 323 308 318 296 276 309 310 298 304 306 283 279 273 263 272 276 237 324 324 218 117 308 264 239 220 225 218 221 225 227 257 250 257 254 200 189 195 187